Lincoln, NE

7:47 AM CDT on October 22, 2017 (GMT -0500)
Lincoln Municipal

Weather History for KLNK - January, 2013

Change the Weather History Date:

Saturday, January 12, 2013

  Actual Average Record
Temperature  
Mean Temperature 19 °F 24 °F  
Max Temperature 26 °F 35 °F 64 °F (1987)
Min Temperature 12 °F 14 °F -33 °F (1974)
Degree Days  
Heating Degree Days 46 41  
Month to date heating degree days 487 489  
Since 1 July heating degree days 2915 2934  
Cooling Degree Days 0 0  
Month to date cooling degree days 0 0  
Year to date cooling degree days 0 0  
Moisture  
Dew Point 7 °F    
Average Humidity 57    
Maximum Humidity 68    
Minimum Humidity 45    
Precipitation  
Precipitation 0.00 in 0.02 in 0.74 in (1890)
Month to date precipitation 0.22 0.24  
Year to date precipitation 0.22 0.24  
Snow  
Snow 0.00 in 0.20 in - ()
Month to date snowfall 0.0 1.9  
Since 1 July snowfall 5.1 10.6  
Snow Depth 0.00 in    
Sea Level Pressure  
Sea Level Pressure 30.09 in    
Wind  
Wind Speed 13 mph (NW)    
Max Wind Speed 24 mph    
Max Gust Speed 29 mph    
Visibility 10 miles    
Events      
T = Trace of Precipitation, MM = Missing Value Source: NWS Daily Summary

Daily Weather History Graph

Daily Weather History Graph

Search for Another Location

Airport or City:

Trip Planner

Search our weather history database for the weather conditions in past years. The results will help you decide how hot, cold, wet, or windy it might be!

Date:

Astronomy

Jan. 12, 2013 Rise Set
Actual Time 7:50 AM CST 5:21 PM CST
Civil Twilight 7:19 AM CST 5:51 PM CST
Nautical Twilight 6:46 AM CST 6:25 PM CST
Astronomical Twilight 6:13 AM CST 6:58 PM CST
Moon 8:09 AM CST (1/12) 6:52 PM CST (1/12)
Length of Visible Light 10h 31m
Length of Day
9h 30m
New Moon, 1% of the Moon is Illuminated
Jan 12
New Moon
Jan 18
First Quarter
Jan 26
Full
Feb 3
Last Quarter
Feb 10
New

Hourly Weather History & Observations

Time (CST) Temp. Windchill Dew Point Humidity Pressure Visibility Wind Dir Wind Speed Gust Speed Precip Events Conditions
12:21 AM 24.8 °F 13.4 °F 15.8 °F 69% 29.81 in 10.0 mi NW 12.7 mph - N/A   Mostly Cloudy
12:54 AM 26.1 °F 12.7 °F 16.0 °F 66% 29.87 in 10.0 mi WNW 18.4 mph 28.8 mph N/A   Overcast
1:19 AM 24.8 °F 11.9 °F 14.0 °F 64% 29.86 in 10.0 mi NW 16.1 mph - N/A   Scattered Clouds
1:54 AM 23.0 °F 9.6 °F 14.0 °F 68% 29.92 in 10.0 mi WNW 16.1 mph 23.0 mph N/A   Clear
2:54 AM 21.9 °F 9.8 °F 10.9 °F 63% 29.98 in 10.0 mi WNW 12.7 mph - N/A   Clear
3:44 AM 21.2 °F 13.6 °F 10.4 °F 63% 29.96 in 10.0 mi NW 5.8 mph - N/A   Mostly Cloudy
3:54 AM 21.0 °F 13.4 °F 10.9 °F 65% 29.99 in 10.0 mi NW 5.8 mph - N/A   Overcast
4:23 AM 21.2 °F 11.7 °F 12.2 °F 68% 29.97 in 10.0 mi WNW 8.1 mph - N/A   Scattered Clouds
4:54 AM 19.9 °F 9.3 °F 10.9 °F 68% 30.02 in 10.0 mi WNW 9.2 mph - N/A   Clear
5:54 AM 19.0 °F 9.0 °F 9.0 °F 65% 30.04 in 10.0 mi WNW 8.1 mph - N/A   Clear
6:54 AM 17.1 °F 8.7 °F 8.1 °F 68% 30.08 in 10.0 mi West 5.8 mph - N/A   Clear
7:54 AM 17.1 °F 4.3 °F 7.0 °F 65% 30.11 in 10.0 mi WNW 11.5 mph - N/A   Clear
8:54 AM 17.1 °F 3.6 °F 6.1 °F 62% 30.14 in 10.0 mi WNW 12.7 mph - N/A   Clear
9:54 AM 19.0 °F 4.0 °F 5.0 °F 54% 30.16 in 10.0 mi WNW 17.3 mph 21.9 mph N/A   Clear
10:54 AM 19.0 °F 6.8 °F 3.9 °F 52% 30.18 in 10.0 mi WNW 11.5 mph - N/A   Clear
11:54 AM 21.0 °F 5.7 °F 3.9 °F 48% 30.16 in 10.0 mi WNW 19.6 mph - N/A   Clear
12:54 PM 21.0 °F 6.2 °F 5.0 °F 50% 30.12 in 10.0 mi WNW 18.4 mph - N/A   Clear
1:54 PM 21.0 °F 5.7 °F 5.0 °F 50% 30.12 in 10.0 mi WNW 19.6 mph - N/A   Clear
2:54 PM 21.9 °F 8.7 °F 6.1 °F 51% 30.13 in 10.0 mi NW 15.0 mph - N/A   Clear
3:54 PM 19.9 °F 4.8 °F 5.0 °F 52% 30.15 in 10.0 mi NW 18.4 mph - N/A   Partly Cloudy
4:54 PM 19.0 °F 5.0 °F 5.0 °F 54% 30.17 in 10.0 mi NNW 15.0 mph - N/A   Clear
5:54 PM 17.1 °F 2.5 °F 5.0 °F 59% 30.19 in 10.0 mi NNW 15.0 mph - N/A   Clear
6:54 PM 17.1 °F 5.8 °F 5.0 °F 59% 30.21 in 10.0 mi North 9.2 mph - N/A   Clear
7:54 PM 16.0 °F 2.3 °F 5.0 °F 62% 30.21 in 10.0 mi NNW 12.7 mph - N/A   Clear
8:54 PM 16.0 °F 1.7 °F 3.9 °F 59% 30.21 in 10.0 mi NNW 13.8 mph - N/A   Scattered Clouds
9:54 PM 14.0 °F -0.8 °F 3.9 °F 64% 30.19 in 10.0 mi NNW 13.8 mph - N/A   Partly Cloudy
10:54 PM 12.9 °F -0.2 °F 3.9 °F 67% 30.21 in 10.0 mi NW 10.4 mph - N/A   Clear
11:54 PM 12.0 °F -2.0 °F 3.9 °F 70% 30.22 in 10.0 mi NNW 11.5 mph - N/A   Clear